Regional Weather Roundup
Issued by NWS

Home | Current Version | Previous Version | Graphics & Text | Print | Product List | Glossary Off
Versions: 1 2 3 4 5 6 7 8 9 10 11 12 13 14 15 16 17 18 19 20 21 22 23 24 25 26 27 28 29 30 31 32 33 34 35 36 37 38 39 40 41 42 43 44 45 46 47 48 49 50

000
ASUS43 KDTX 271201
RWRMI
MICHIGAN HOURLY REGIONAL WEATHER ROUNDUP
NATIONAL WEATHER SERVICE DETROIT/PONTIAC MI
800 AM EDT MON MAR 27 2017

NOTE: "FAIR" INDICATES FEW OR NO CLOUDS BELOW 12,000 FEET WITH NO
SIGNIFICANT WEATHER AND/OR OBSTRUCTION TO VISIBILITY.

MIZ047>049-052>055-059>063-066>070-074>076-081>083-271300-
SOUTHEAST LOWER MICHIGAN

CITY           SKY/WX    TMP DP  RH WIND       PRES   REMARKS
ADRIAN         CLOUDY    51  49  92 W7        29.90S
6HR MIN TEMP:  49; 6HR MAX TEMP:  52;

ALMA           CLOUDY    49  48  97 SW9       29.87R
ANN ARBOR      CLOUDY    50  50 100 S8        29.88S FOG
BAD AXE        MIX PCPN  50  50 100 SW5       29.86R VSB 3/4
6HR MIN TEMP:  47; 6HR MAX TEMP:  50;

CARO           CLOUDY    51  51  99 SW5       29.84F FOG
DETROIT CITY   PTCLDY    49  49 100 SW5       29.88S FOG
6HR MIN TEMP:  48; 6HR MAX TEMP:  51;

DETROIT        CLOUDY    52  51  97 SW8       29.90R FOG
6HR MIN TEMP:  47; 6HR MAX TEMP:  52;

FLINT          CLOUDY    52  50  93 SW6       29.86F
6HR MIN TEMP:  50; 6HR MAX TEMP:  52;

GROSSE ILE     FOG       49  48  98 S6        29.89R VSB 1
6HR MIN TEMP:  43; 6HR MAX TEMP:  51;

HILLSDALE      CLOUDY    48  46  93 SW8       29.90R FOG
HOWELL         CLOUDY    51  49  90 W6        29.87S
6HR MIN TEMP:  50; 6HR MAX TEMP:  52;


CITY           SKY/WX    TMP DP  RH WIND       PRES   REMARKS
JACKSON        CLOUDY    51  50  96 SW8       29.89R
6HR MIN TEMP:  50; 6HR MAX TEMP:  52; 6HR PCP: TRACE;

LAMBERTVILLE   CLOUDY    53  50  89 SW5       29.91R
6HR MIN TEMP:  53; 6HR MAX TEMP:  55;

LANSING        CLOUDY    50  47  89 W12       29.88S
6HR MIN TEMP:  50; 6HR MAX TEMP:  53; 6HR PCP:  0.01;

LAPEER         CLOUDY    52  51  96 W6        29.86S FOG
6HR MIN TEMP:  48; 6HR MAX TEMP:  52;

MASON          CLOUDY    51  50  96 W7        29.88S
MONROE         CLOUDY    52  51  97 SW5       29.89S
6HR MIN TEMP:  47; 6HR MAX TEMP:  52;

MT. CLEMENS    CLOUDY    50  50 100 CALM      29.87R FOG
PONTIAC        CLOUDY    51  49  92 SW5       29.87R FOG
6HR MIN TEMP:  50; 6HR MAX TEMP:  51;

PORT HOPE        N/A     39  39 100 NW6       29.84R WCI  35
6HR MIN TEMP:  37; 6HR MAX TEMP:  50;

PORT HURON     CLOUDY    48  48 100 CALM      29.87S FOG
TRI CITIES     FOG       50  50 100 SW8       29.86R VSB 1
6HR MIN TEMP:  42; 6HR MAX TEMP:  50;

MIDLAND        SNOW      46  45  97 W3        29.85R VSB 1/4
6HR MIN TEMP:  42; 6HR MAX TEMP:  46;

TROY           CLOUDY    51  50  96 W3        29.89S FOG
SAGINAW HB     CLOUDY    52  48  87 SW6       29.85R FOG
$$
MIZ043>046-050>051-056>058-064>065-071>073-077>080-271300-
SOUTHWEST LOWER MICHIGAN

CITY           SKY/WX    TMP DP  RH WIND       PRES   REMARKS
BATTLE CREEK   CLOUDY    50  49  96 W8        29.91R
6HR MIN TEMP:  50; 6HR MAX TEMP:  53; 6HR PCP:  0.01;

BENTON HARBOR  CLOUDY    43  41  93 W5        29.93R FOG
6HR MIN TEMP:  43; 6HR MAX TEMP:  50;

BIG RAPIDS     CLOUDY    40  40  97 NW6       29.86R
6HR MIN TEMP:  40; 6HR MAX TEMP:  46;

COLDWATER      CLOUDY    50  50 100 W9        29.91R FOG
6HR MIN TEMP:  50; 6HR MAX TEMP:  53;

FREMONT        CLOUDY    39  39 100 W5        29.88S
HOLLAND        CLOUDY    40  40 100 W3        29.92R FOG
6HR MIN TEMP:  40; 6HR MAX TEMP:  44;

GRAND RAPIDS   CLOUDY    42  42 100 SW7       29.89R FOG
6HR MIN TEMP:  42; 6HR MAX TEMP:  50; 6HR PCP: TRACE;

IONIA          CLOUDY    45  44  97 W9        29.88R FOG
6HR MIN TEMP:  45; 6HR MAX TEMP:  52;

KALAMAZOO      CLOUDY    49  46  90 W8        29.91R FOG
6HR MIN TEMP:  49; 6HR MAX TEMP:  53; 6HR PCP: TRACE;

LUDINGTON      CLOUDY    37  37 100 NW8       29.90S WCI  30
6HR MIN TEMP:  36; 6HR MAX TEMP:  38;

MARSHALL       CLOUDY    50  49  97 W6        29.90R FOG
6HR MIN TEMP:  50; 6HR MAX TEMP:  53; 6HR PCP:  0.04;

MOUNT PLEASANT CLOUDY    46  46  97 W8        29.85R
6HR MIN TEMP:  42; 6HR MAX TEMP:  47;

MUSKEGON       CLOUDY    39  37  92 W7        29.92R WCI  34
6HR MIN TEMP:  39; 6HR MAX TEMP:  42; 6HR PCP: TRACE;

SOUTH HAVEN    FOG       40  40  99 NW3       29.93R VSB 1
$$
MIZ016>042-271300-
NORTHERN LOWER MICHIGAN

CITY           SKY/WX    TMP DP  RH WIND       PRES   REMARKS
ALPENA         FOG       39  39 100 CALM      29.85R VSB 1/4
6HR MIN TEMP:  37; 6HR MAX TEMP:  40;

BEAVER ISLAND  CLOUDY    34  34 100 W5        29.90R FOG     WCI  30
6HR MIN TEMP:  33; 6HR MAX TEMP:  34;

BELLAIRE       CLOUDY    36  35  96 CALM      29.88R FOG
6HR MIN TEMP:  36; 6HR MAX TEMP:  41;

CADILLAC       CLOUDY    40  39  97 W8        29.84R WCI  34
CHARLEVOIX     FOG       34  34 100 NW6       29.91R VSB 1/2 WCI  28
FRANKFORT      CLOUDY    36  34  94 NW6       29.90S FOG     WCI  31
GAYLORD        CLOUDY    42  38  85 W6        29.83R FOG
6HR MIN TEMP:  41; 6HR MAX TEMP:  43;

GRAYLING       LGT RAIN  41  41 100 W5        29.84S VSB 1
HARBOR SPRINGS MIX PCPN  33  33 100 CALM      29.88R VSB 1/2
HOUGHTON LAKE  FOG       41  40  96 W6        29.84R VSB 1/4
6HR MIN TEMP:  39; 6HR MAX TEMP:  41;

MANISTEE       LGT RAIN  36  36 100 NW9       29.90R WCI  29
OSCODA         CLOUDY    42  41  97 SW3       29.84R FOG
6HR MIN TEMP:  39; 6HR MAX TEMP:  42;

PELLSTON       CLOUDY    35  33  92 NW3       29.87R FOG
6HR MIN TEMP:  35; 6HR MAX TEMP:  36;

ROGERS CITY    CLOUDY    38  37  96 CALM      29.85R FOG
TRAVERSE CITY  DRIZZLE   39  37  92 NW6       29.88R FOG     WCI  35
6HR MIN TEMP:  39; 6HR MAX TEMP:  43; 6HR PCP: TRACE;

$$
MIZ007>008-015-271300-
EASTERN UPPER MICHIGAN

CITY           SKY/WX    TMP DP  RH WIND       PRES   REMARKS
KINROSS        FOG       33  32  96 NW3       29.85R VSB 1
                                      6HR PCP:  0.06;

MACKINAC ISLAN CLOUDY    32  32 100 N3        29.85R
6HR MIN TEMP:  32; 6HR MAX TEMP:  33;

NEWBERRY       FOG       32  32  99 NW5       29.87R VSB 1/4 WCI  27
6HR MIN TEMP:  32; 6HR MAX TEMP:  32;

S. S. MARIE    CLOUDY    35  33  92 NW3       29.84R
6HR MIN TEMP:  35; 6HR MAX TEMP:  36; 6HR PCP:  0.06;

MUNISING         N/A     34  33  96 NW9       29.91R WCI  27
6HR MIN TEMP:  34; 6HR MAX TEMP:  34; 6HR PCP:  0.01;

$$
MIZ004>006-011>014-085-271300-
CENTRAL UPPER MICHIGAN

CITY           SKY/WX    TMP DP  RH WIND       PRES   REMARKS
MANISTIQUE     MIX PCPN  34  32  93 NW8       29.89R WCI  27
ESCANABA       CLOUDY    34  33  96 NW5       29.91S WCI  30
6HR MIN TEMP:  34; 6HR MAX TEMP:  35;

MENOMINEE        N/A    N/A N/A N/A MISG        N/A
SAWYER-GWINN   CLOUDY    32  32 100 N9        29.90R FOG     WCI  24
$$
MIZ001>003-009>011-084-271300-
WESTERN UPPER MICHIGAN

CITY           SKY/WX    TMP DP  RH WIND       PRES   REMARKS
IRON MOUNTAIN  CLOUDY    34  30  85 NW8       29.90R WCI  27
6HR MIN TEMP:  34; 6HR MAX TEMP:  35;

HOUGHTON       CLOUDY    32  30  92 NW8       29.92R WCI  25
6HR MIN TEMP:  32; 6HR MAX TEMP:  34;

COPPER HARBOR    N/A     33  32  96 N8        29.93R WCI  26
6HR MIN TEMP:  33; 6HR MAX TEMP:  34;

IRONWOOD       FOG       32  31  96 CALM      29.94F VSB 1/4
6HR MIN TEMP:  32; 6HR MAX TEMP:  32;

$$

ABBREVIATIONS USED IN REMARKS
   TC - TEMPERATURE IN CELSIUS
  WCI - WIND CHILL INDEX
   HX - HEAT INDEX
  VSB - VISIBILITY




USA.gov is the U.S. government's official web portal to all federal, state and local government web resources and services.